This is the latest recevied weather packets stored in our database for station/object N8ESC. If no packets are shown the sender has not sent any weather packets the latest 10 day(s).
| Time | Temp. | Humidity | Pressure | Rain* | Wind** | Luminosity | Snow |
|---|---|---|---|---|---|---|---|
| 1777737419 | 8.89° C | 50% | 1015.7 hPa | 0 mm | - | 600 W/m² | - |
| 1777737117 | 8.33° C | 51% | 1015.6 hPa | 0 mm | - | 670 W/m² | - |
| 1777736189 | 8.89° C | 35% | 1015.9 hPa | 0 mm | - | 612 W/m² | - |
| 1777735886 | 8.33° C | 36% | 1015.9 hPa | 0 mm | - | 603 W/m² | - |
| 1777735583 | 8.33° C | 37% | 1015.9 hPa | 0 mm | - | 594 W/m² | - |
| 1777735281 | 8.33° C | 38% | 1015.7 hPa | 0 mm | - | 585 W/m² | - |
| 1777734978 | 8.33° C | 38% | 1015.8 hPa | 0 mm | - | 574 W/m² | - |
| 1777734675 | 7.78° C | 38% | 1015.9 hPa | 0 mm | - | 564 W/m² | - |
| 1777734373 | 7.78° C | 37% | 1015.9 hPa | 0 mm | - | 555 W/m² | - |
| 1777734069 | 7.78° C | 37% | 1016.1 hPa | 0 mm | - | 542 W/m² | - |
| 1777733765 | 7.78° C | 37% | 1016 hPa | 0 mm | - | 530 W/m² | - |
| 1777733462 | 7.78° C | 39% | 1015.9 hPa | 0 mm | - | 523 W/m² | - |
| 1777733158 | 7.22° C | 38% | 1016 hPa | 0 mm | - | 511 W/m² | - |
| 1777732855 | 6.67° C | 39% | 1016.3 hPa | 0 mm | - | 499 W/m² | - |
| 1777732551 | 7.22° C | 39% | 1016.3 hPa | 0 mm | - | 485 W/m² | - |
| 1777732250 | 6.67° C | 40% | 1016.5 hPa | 0 mm | - | 474 W/m² | - |
| 1777731946 | 6.67° C | 41% | 1016.2 hPa | 0 mm | - | 461 W/m² | - |
| 1777731643 | 6.11° C | 43% | 1016.3 hPa | 0 mm | - | 447 W/m² | - |
| 1777731340 | 6.11° C | 42% | 1016.5 hPa | 0 mm | - | 433 W/m² | - |
| 1777731038 | 6.11° C | 44% | 1016.3 hPa | 0 mm | - | 419 W/m² | - |
| 1777730737 | 6.11° C | 44% | 1016.5 hPa | 0 mm | - | 405 W/m² | - |
| 1777730432 | 5.56° C | 45% | 1016.6 hPa | 0 mm | - | 391 W/m² | - |
| 1777730128 | 5.56° C | 46% | 1016.5 hPa | 0 mm | - | 376 W/m² | - |
| 1777729825 | 5.56° C | 46% | 1016.8 hPa | 0 mm | - | 363 W/m² | - |
| 1777729522 | 5.56° C | 47% | 1016.7 hPa | 0 mm | - | 350 W/m² | - |
* Rain latest hour (hover to see other rain measurements)
** Current wind speed in m/s (hover to see current wind gust speed)